Regional Weather Roundup
Issued by NWS

Home | Current Version | Previous Version | Graphics & Text | Print | Product List | Glossary On
Versions: 1 2 3 4 5 6 7 8 9 10 11 12 13 14 15 16 17 18 19 20 21 22 23 24 25 26 27 28 29 30 31 32 33 34 35 36 37 38 39 40 41 42 43 44 45 46 47 48 49 50
150
ASUS45 KBOU 191307
RWRCO

WEATHER ROUNDUP FOR COLORADO
NATIONAL WEATHER SERVICE DENVER/BOULDER CO
700 AM MDT SAT AUG 19 2017

NOTE: "FAIR" INDICATES FEW OR NO CLOUDS BELOW 12000 FEET WITH NO
SIGNIFICANT WEATHER AND/OR OBSTRUCTIONS TO VISIBILITY.

COZ001>005-013-030-031-191400-
...NORTHWEST COLORADO...

CITY           SKY/WX    TMP DP  RH WIND       PRES   REMARKS
CRAIG          FAIR      41  34  76 CALM      30.25R
HAYDEN         FAIR      51  35  54 E8        30.27R
MEEKER         FAIR      48  37  65 NE7       30.25R
RABBIT EARS PA FAIR      52  32  46 SW5       30.51S
STEAMBOAT SPGS FAIR      43  37  78 CALM      30.28R
WALDEN         FAIR      39  30  70 S3        30.36S
$$

COZ006>008-011-191400-
...WEST CENTRAL VALLEYS...

CITY           SKY/WX    TMP DP  RH WIND       PRES   REMARKS
GRAND JUNCTION FAIR      64  36  35 E13       30.12R
MONTROSE       FAIR      55  39  54 S5        30.22R
EAGLE          FAIR      46  31  55 E3        30.32S
RIFLE          FAIR      52  35  52 E3        30.21R
DELTA          FAIR      58  37  44 CALM      30.19R
NUCLA          FAIR      55  32  41 E9        30.25S
$$

COZ017>023-064>068-191400-
...SOUTHWEST COLORADO...

CITY           SKY/WX    TMP DP  RH WIND       PRES   REMARKS
DURANGO        FAIR      52  36  54 N5        30.28R
CORTEZ         FAIR      47  37  68 CALM      30.22R
PAGOSA SPRINGS FAIR      48  34  58 CALM      30.38R
TELLURIDE      FAIR      52  33  47 SE7       30.47R
WOLF CREEK PAS FAIR      45  27  49 S9        30.70S
$$

COZ009-010-012-014-032>034-037-058>063-191400-
...CENTRAL COLORADO...

CITY           SKY/WX    TMP DP  RH WIND       PRES   REMARKS
ASPEN          FAIR      48  34  58 SW10      30.34R
BUENA VISTA    FAIR      45  36  71 CALM      30.39R
COPPER MTN     FAIR      54  23  30 SW9       30.64S
BERTHOUD PASS  FAIR      43  37  81 NW24      30.65S
COTTONWOOD PAS FAIR      55  30  38 E7        30.49S
GUNNISON       FAIR      42  34  73 CALM      30.41R
KREMMLING      FAIR      43  36  75 CALM      30.36S
LEADVILLE      FAIR      37  29  72 CALM      30.48F
MONARCH PASS   FAIR      46  30  53 W14       30.74S
SALIDA         FAIR      53  38  56 NW7       30.43S
SUNLIGHT       FAIR      50  25  37 SW7       30.57S
WILKERSON PASS FAIR      50  23  34 W5        30.62R
$$

COZ069>075-191400-
...SAN LUIS VALLEY/SANGRE DE CRISTO MOUNTAINS...

CITY           SKY/WX    TMP DP  RH WIND       PRES   REMARKS
ALAMOSA        FAIR      48  40  73 W6        30.36R
DEL NORTE      FAIR      52  36  53 W5        30.40R
LA VETA PASS   NOT AVBL
SAGUACHE       FAIR      46  36  66 CALM      30.40R
$$

COZ035-036-038>040-191400-
...NORTHERN COLORADO FRONT RANGE...

CITY           SKY/WX    TMP DP  RH WIND       PRES   REMARKS
DENVER INTL AP FAIR      63  46  54 W9        30.12R
DMNS CITY PARK   N/A     64  43  46 SW6       30.12R
AURORA         PTCLDY    64  44  48 SW9       30.14R
FRONT RANGE AP FAIR      64  46  52 W7        30.13R
ERIE MUNI ARPT FAIR      52  47  81 CALM      30.16S
BOULDER MUN AP FAIR      59  45  58 CALM      30.12R
CENTENNIAL     FAIR      64  42  44 W7        30.16R
BROOMFIELD     PTCLDY    66  39  37 CALM      30.14S
FORT COLLINS   FAIR      55  50  83 VRB3      30.10S
LONGMONT       FAIR      54  47  77 CALM      30.12S
$$

COZ041-046-047-076>085-087-088-191400-
...PIKES PEAK/PALMER DIVIDE AND SOUTHERN FOOTHILLS...

CITY           SKY/WX    TMP DP  RH WIND       PRES   REMARKS
COLO. SPRINGS  FAIR      61  53  75 CALM      30.20S
A. F. ACADEMY  FAIR      50  46  85 N6        30.21S
SCHRIEVER AFB  MOCLDY    61  52  74 NW3       30.20S
CHEYENNE MTN   MOCLDY    67  38  34 CALM      30.19S
ELLICOTT       NOT AVBL
FALCON         FAIR      59  44  57 W7        30.24S
FORT CARSON    CLOUDY    59  47  65 NW7       30.17S
LIMON          FAIR      53  53 100 CALM      30.14S
MONUMENT HILL  FAIR      57  41  54 SW9       30.26R
CANON CITY     CLEAR     66  45  45 W15       30.16R
WALSENBURG     FAIR      66  41  39 W12       30.20R
TRINIDAD       FAIR      68  47  46 W12       30.18R
$$

COZ042>045-048>051-090-091-191400-
...NORTHEAST COLORADO...

CITY           SKY/WX    TMP DP  RH WIND       PRES   REMARKS
GREELEY ARPT   FAIR      53  51  93 W3        30.08S
AKRON          FAIR      64  55  72 SW12      30.07S
BURLINGTON     FAIR      64  60  87 S15       30.06F
WRAY           NOT AVBL
YUMA           FAIR      61  46  59 S9        30.04S
STERLING       FAIR      57  55  94 W5        30.03S
HOLYOKE        FAIR      59  55  88 CALM      30.04S
FORT MORGAN    FAIR      59  53  80 SW7       30.07S
$$

COZ086-089-092>099-191400-
...SOUTHEAST COLORADO...

CITY           SKY/WX    TMP DP  RH WIND       PRES   REMARKS
PUEBLO         FAIR      60  53  77 NW6       30.11R
LA JUNTA       FAIR      63  55  75 W6        30.08R
LAMAR          FAIR      61  59  93 CALM      30.04R FOG
SPRINGFIELD      N/A     63  62  97 SW8       30.10S
$$




USA.gov is the U.S. government's official web portal to all federal, state and local government web resources and services.